Location: Buffign�court
(47.8126°N, 6.0176°E)
Time: 17:22:58
(UTC+00:00)

ATLAS CENTAUR R/B - Pass Details

Date: 16 June 2021
Orbit: 472 x 671 km, 64.6° (Epoch: 03 August)

Event Time Altitude Azimuth Distance (km) Brightness Sun altitude
Rises 21:37:08 0° 322° (NW) 2,769 6.7 -13.9°
Reaches altitude 10° 21:39:18 10° 324° (NW) 1,902 5.5 -14.1°
Maximum altitude 21:43:37 76° 51° (NE) 629 1.6 -14.4°
Enters shadow 21:46:24 23° 134° (SE) 1,334 2.7 -14.6°
